�������l�o���
Date,Time,MP-1(��Sv/h),MP-2(��Sv/h),MP-3(��Sv/h),MP-4(��Sv/h),MP-5(��Sv/h),MP-6(��Sv/h),MP-7(��Sv/h),MP-8(��Sv/h),����,����(m/s),���J
2014/06/09,00:00,2.2,3.9,4.4,3.9,4.1,1.5,2.2,2.5,�k�k��,2.0,��
2014/06/09,00:10,2.2,3.9,4.4,3.9,4.1,1.5,2.2,2.5,�k,2.3,��
2014/06/09,00:20,2.2,3.9,4.4,3.9,4.1,1.5,2.2,2.5,�k,2.7,��
2014/06/09,00:30,2.2,3.9,4.4,3.9,4.1,1.5,2.2,2.5,�k,2.6,��
2014/06/09,00:40,2.2,3.9,4.4,3.9,4.1,1.5,2.2,2.5,�k,2.6,��
2014/06/09,00:50,2.2,3.9,4.4,3.9,4.1,1.5,2.2,2.5,�k,2.5,�L
2014/06/09,01:00,2.2,3.9,4.4,3.9,4.1,1.5,2.2,2.5,�k,2.3,�L
2014/06/09,01:10,2.2,3.9,4.4,3.9,4.1,1.5,2.2,2.5,�k,2.9,�L
2014/06/09,01:20,2.2,3.9,4.4,3.9,4.1,1.5,2.2,2.5,�k,2.0,�L
2014/06/09,01:30,2.2,3.9,4.4,3.9,4.1,1.5,2.2,2.5,�k,2.8,�L
2014/06/09,01:40,2.2,3.9,4.3,3.9,4.0,1.5,2.2,2.5,�k,2.3,�L
2014/06/09,01:50,2.2,3.9,4.3,3.9,4.0,1.5,2.2,2.5,�k,3.1,�L
2014/06/09,02:00,2.2,3.9,4.3,3.9,4.0,1.5,2.2,2.5,�k,2.7,�L
2014/06/09,02:10,2.2,3.9,4.3,3.9,4.0,1.5,2.2,2.5,�k,2.2,�L
2014/06/09,02:20,2.2,3.9,4.3,3.9,4.0,1.5,2.2,2.5,�k,3.2,�L
2014/06/09,02:30,2.2,3.9,4.3,3.9,4.0,1.5,2.2,2.5,�k�k��,3.8,�L
2014/06/09,02:40,2.2,3.9,4.3,3.9,4.0,1.5,2.2,2.5,�k�k��,3.9,�L
2014/06/09,02:50,2.2,3.9,4.3,3.9,4.0,1.5,2.2,2.5,�k,4.4,�L
2014/06/09,03:00,2.2,3.9,4.3,3.9,4.0,1.5,2.2,2.5,�k�k��,4.0,�L
2014/06/09,03:10,2.2,3.9,4.3,3.9,4.0,1.5,2.2,2.5,�k,4.7,�L
2014/06/09,03:20,2.2,3.9,4.3,3.9,4.0,1.5,2.2,2.5,�k,3.9,�L
2014/06/09,03:30,2.2,3.9,4.3,3.9,4.0,1.5,2.2,2.5,�k,4.1,�L
2014/06/09,03:40,2.2,3.9,4.3,3.9,4.0,1.5,2.2,2.5,�k,4.0,�L
2014/06/09,03:50,2.2,3.8,4.3,3.9,4.0,1.5,2.1,2.5,�k,3.4,�L
2014/06/09,04:00,2.2,3.8,4.3,3.8,3.9,1.5,2.1,2.5,�k,3.2,�L
2014/06/09,04:10,2.2,3.8,4.3,3.8,3.9,1.5,2.1,2.5,�k,2.9,�L
2014/06/09,04:20,2.2,3.8,4.3,3.8,3.9,1.5,2.1,2.5,��쐼,1.1,�L
2014/06/09,04:30,2.2,3.8,4.3,3.8,3.9,1.5,2.1,2.5,�k,3.0,�L
2014/06/09,04:40,2.2,3.8,4.3,3.8,3.9,1.5,2.1,2.5,��쓌,5.0,�L
2014/06/09,04:50,2.2,3.8,4.3,3.8,3.9,1.5,2.1,2.5,�k��,0.9,�L
2014/06/09,05:00,2.2,3.8,4.3,3.8,3.9,1.5,2.1,2.5,���k��,2.0,�L
2014/06/09,05:10,2.2,3.8,4.3,3.8,3.9,1.5,2.1,2.5,��,1.9,�L
2014/06/09,05:20,2.2,3.8,4.3,3.8,3.9,1.5,2.1,2.5,�k��,1.2,�L
2014/06/09,05:30,2.2,3.8,4.3,3.8,3.9,1.5,2.1,2.5,-,CALM,�L
2014/06/09,05:40,2.2,3.8,4.3,3.8,3.9,1.5,2.1,2.5,�k�k��,3.3,�L
2014/06/09,05:50,2.2,3.8,4.3,3.8,3.9,1.5,2.1,2.5,�k�k��,3.8,�L
2014/06/09,06:00,2.2,3.8,4.3,3.8,3.9,1.5,2.1,2.5,�k�k��,3.1,�L
2014/06/09,06:10,2.2,3.8,4.3,3.8,3.9,1.5,2.1,2.5,�k�k��,3.1,�L
2014/06/09,06:20,2.2,3.8,4.3,3.8,3.9,1.5,2.1,2.5,�k�k��,2.7,�L
2014/06/09,06:30,2.2,3.8,4.3,3.8,3.9,1.5,2.1,2.5,�k�k��,2.2,�L
2014/06/09,06:40,2.2,3.8,4.3,3.8,3.9,1.5,2.1,2.5,�k�k��,2.2,�L
2014/06/09,06:50,2.2,3.8,4.3,3.8,3.9,1.5,2.1,2.5,�k�k��,1.5,�L
2014/06/09,07:00,2.2,3.8,4.3,3.8,3.8,1.5,2.1,2.5,�k�k��,2.5,�L
2014/06/09,07:10,2.2,3.8,4.2,3.8,3.8,1.5,2.1,2.5,�k,1.9,�L
2014/06/09,07:20,2.2,3.8,4.2,3.8,3.8,1.5,2.1,2.5,�k,1.9,�L
2014/06/09,07:30,2.2,3.7,4.2,3.8,3.8,1.5,2.1,2.5,�k��,0.8,�L
2014/06/09,07:40,2.2,3.7,4.2,3.8,3.8,1.5,2.1,2.5,�k,1.3,�L
2014/06/09,07:50,2.2,3.7,4.2,3.8,3.8,1.5,2.1,2.5,�k�k��,1.2,�L
2014/06/09,08:00,2.2,3.8,4.2,3.8,3.8,1.5,2.1,2.5,�k,1.3,�L
2014/06/09,08:10,2.2,3.8,4.3,3.8,3.8,1.5,2.1,2.5,�k,1.5,�L
2014/06/09,08:20,2.2,3.8,4.3,3.8,3.9,1.5,2.1,2.5,�k�k��,1.8,�L
2014/06/09,08:30,2.2,3.8,4.3,3.8,3.9,1.5,2.1,2.5,�k�k��,1.9,�L
2014/06/09,08:40,2.2,3.8,4.3,3.8,3.9,1.5,2.1,2.5,�k�k��,1.0,��
2014/06/09,08:50,2.2,3.8,4.3,3.9,3.9,1.5,2.1,2.5,�k,1.4,�L
2014/06/09,09:00,2.2,3.8,4.3,3.9,3.9,1.5,2.1,2.5,�k�k��,2.0,�L
2014/06/09,09:10,2.2,3.8,4.3,3.9,3.9,1.5,2.1,2.5,�k,1.8,�L
2014/06/09,09:20,2.2,3.8,4.3,3.9,3.9,1.5,2.1,2.5,�k,2.5,�L
2014/06/09,09:30,2.2,3.9,4.3,3.9,3.9,1.5,2.1,2.5,�k,2.7,�L
2014/06/09,09:40,2.2,3.9,4.3,3.9,3.9,1.5,2.1,2.5,�k,2.7,�L
2014/06/09,09:50,2.2,3.9,4.3,3.9,3.9,1.5,2.1,2.5,�k,3.1,�L
2014/06/09,10:00,2.2,3.9,4.3,3.9,3.9,1.5,2.1,2.5,�k�k��,3.5,��
2014/06/09,10:10,2.2,3.9,4.3,3.9,3.9,1.5,2.1,2.5,�k�k��,3.5,��
2014/06/09,10:20,2.2,3.9,4.3,3.9,4.0,1.5,2.1,2.5,�k�k��,3.3,��
2014/06/09,10:30,2.2,3.9,4.3,3.9,4.0,1.5,2.1,2.5,�k�k��,4.0,��
2014/06/09,10:40,2.2,3.9,4.4,3.9,4.0,1.5,2.1,2.5,�k�k��,4.2,��
2014/06/09,10:50,2.2,3.9,4.4,3.9,4.0,1.5,2.1,2.5,�k�k��,4.9,��
2014/06/09,11:00,2.2,3.9,4.4,3.9,4.0,1.5,2.1,2.5,�k�k��,5.2,��
2014/06/09,11:10,2.2,3.9,4.4,3.9,4.0,1.5,2.1,2.5,�k�k��,5.7,��
2014/06/09,11:20,2.2,3.9,4.4,3.9,4.0,1.5,2.1,2.5,�k�k��,5.5,��
2014/06/09,11:30,2.2,3.9,4.4,3.9,4.0,1.5,2.2,2.5,�k�k��,5.4,��
2014/06/09,11:40,2.2,3.9,4.4,3.9,4.0,1.5,2.2,2.5,�k�k��,5.0,��
2014/06/09,11:50,2.2,3.9,4.4,3.9,4.0,1.5,2.2,2.5,�k�k��,4.7,��
2014/06/09,12:00,2.2,3.9,4.4,3.9,4.0,1.5,2.2,2.5,�k�k��,4.3,��
2014/06/09,12:10,2.2,3.9,4.4,3.9,4.0,1.5,2.2,2.5,�k�k��,4.1,��
2014/06/09,12:20,2.2,3.9,4.4,3.9,4.0,1.5,2.2,2.5,�k�k��,3.2,��
2014/06/09,12:30,2.2,3.9,4.4,3.9,4.0,1.5,2.2,2.5,�k�k��,2.6,��
2014/06/09,12:40,2.2,3.9,4.4,3.9,4.0,1.5,2.2,2.5,�k�k��,1.9,��
2014/06/09,12:50,2.2,3.9,4.4,3.9,4.0,1.5,2.2,2.5,�k,1.5,��
2014/06/09,13:00,2.2,3.9,4.4,3.9,4.0,1.5,2.2,2.5,�k�k��,1.5,��
2014/06/09,13:10,2.2,3.9,4.4,3.9,4.0,1.5,2.2,2.5,�k,1.4,��
2014/06/09,13:20,2.2,3.9,4.4,3.9,4.0,1.5,2.2,2.5,�k,1.9,��
2014/06/09,13:30,2.2,3.9,4.4,3.9,4.0,1.5,2.2,2.5,�k,2.2,��
2014/06/09,13:40,2.2,3.9,4.4,3.9,4.0,1.5,2.2,2.5,�k�k��,2.2,��
2014/06/09,13:50,2.2,3.9,4.4,3.9,4.0,1.5,2.2,2.5,�k,2.4,��
2014/06/09,14:00,2.2,3.9,4.4,3.9,4.0,1.5,2.2,2.5,�k�k��,2.3,��
2014/06/09,14:10,2.2,3.9,4.4,3.9,4.0,1.5,2.2,2.5,�k,2.2,��
2014/06/09,14:20,2.2,3.9,4.4,3.9,4.0,1.5,2.2,2.5,�k,2.4,��
2014/06/09,14:30,2.2,3.9,4.4,3.9,4.0,1.5,2.2,2.5,�k,2.9,��
2014/06/09,14:40,2.2,3.9,4.4,3.9,4.0,1.5,2.2,2.5,�k�k��,2.8,��
2014/06/09,14:50,2.2,3.9,4.4,3.9,4.0,1.5,2.2,2.5,�k�k��,2.9,��
2014/06/09,15:00,2.2,4.0,4.4,3.9,4.0,1.5,2.2,2.5,�k,2.6,��
2014/06/09,15:10,2.2,4.0,4.4,3.9,4.1,1.5,2.2,2.5,�k�k��,2.3,��
2014/06/09,15:20,2.2,4.0,4.4,3.9,4.1,1.5,2.2,2.5,�k�k��,1.6,��
2014/06/09,15:30,2.2,4.0,4.4,3.9,4.1,1.5,2.2,2.5,�k�k��,2.2,��
2014/06/09,15:40,2.2,4.0,4.4,3.9,4.1,1.5,2.2,2.5,�k,2.0,��
2014/06/09,15:50,2.2,4.0,4.4,3.9,4.1,1.5,2.2,2.5,�k,2.0,��
2014/06/09,16:00,2.2,4.0,4.4,3.9,4.1,1.5,2.2,2.5,�k�k��,2.2,�L
2014/06/09,16:10,2.2,4.0,4.4,3.9,4.1,1.5,2.2,2.5,�k�k��,1.5,��
2014/06/09,16:20,2.2,4.0,4.4,3.9,4.1,1.5,2.2,2.5,�k�k��,3.4,��
2014/06/09,16:30,2.2,4.0,4.4,3.9,4.1,1.5,2.2,2.5,�k�k��,3.0,�L
2014/06/09,16:40,2.2,4.0,4.4,3.9,4.1,1.5,2.2,2.5,�k�k��,3.7,��
2014/06/09,16:50,2.2,4.0,4.4,3.9,4.1,1.5,2.2,2.5,�k,4.1,�L
2014/06/09,17:00,2.2,4.0,4.4,3.9,4.1,1.5,2.2,2.5,�k�k��,4.3,�L
2014/06/09,17:10,2.2,3.9,4.4,3.9,4.0,1.5,2.2,2.5,�k�k��,3.9,�L
2014/06/09,17:20,2.2,3.9,4.4,3.9,4.0,1.5,2.2,2.5,�k,3.7,�L
2014/06/09,17:30,2.2,3.9,4.4,3.9,4.0,1.5,2.2,2.5,�k,2.7,�L
2014/06/09,17:40,2.2,3.9,4.4,3.9,4.0,1.5,2.2,2.5,�k,2.8,�L
2014/06/09,17:50,2.2,3.9,4.4,3.9,4.0,1.5,2.2,2.5,�k,2.9,�L
2014/06/09,18:00,2.2,3.9,4.4,3.9,4.0,1.5,2.2,2.5,�k,3.2,�L
2014/06/09,18:10,2.2,3.9,4.4,3.9,4.0,1.5,2.2,2.5,�k,3.7,�L
2014/06/09,18:20,2.2,3.9,4.3,3.9,4.0,1.5,2.2,2.5,�k,3.2,�L
2014/06/09,18:30,2.2,3.9,4.4,3.9,4.0,1.5,2.2,2.5,�k,3.6,��
2014/06/09,18:40,2.2,3.9,4.4,3.9,4.0,1.5,2.2,2.5,�k,2.8,�L
2014/06/09,18:50,2.2,3.9,4.3,3.9,4.0,1.5,2.2,2.5,�k,3.1,�L
2014/06/09,19:00,2.2,3.9,4.3,3.9,4.0,1.5,2.2,2.5,�k,3.1,�L
2014/06/09,19:10,2.2,3.9,4.3,3.9,4.0,1.5,2.2,2.5,�k,3.4,�L
2014/06/09,19:20,2.2,3.9,4.3,3.9,4.0,1.5,2.2,2.5,�k,3.0,�L
2014/06/09,19:30,2.2,3.9,4.3,3.9,4.0,1.5,2.2,2.5,�k,3.6,�L
2014/06/09,19:40,2.2,3.9,4.3,3.9,4.0,1.5,2.2,2.5,�k,3.1,�L
2014/06/09,19:50,2.2,3.9,4.3,3.9,4.0,1.5,2.2,2.5,�k,3.6,�L
2014/06/09,20:00,2.2,3.9,4.3,3.9,4.0,1.5,2.1,2.5,�k,3.5,�L
2014/06/09,20:10,2.2,3.9,4.3,3.9,4.0,1.5,2.1,2.5,�k,3.8,�L
2014/06/09,20:20,2.2,3.9,4.3,3.9,4.0,1.5,2.2,2.5,�k,3.9,�L
2014/06/09,20:30,2.2,3.9,4.3,3.9,4.0,1.5,2.1,2.5,�k,3.4,��
2014/06/09,20:40,2.2,3.9,4.3,3.9,4.0,1.5,2.1,2.5,�k,3.3,��
2014/06/09,20:50,2.2,3.9,4.3,3.9,4.0,1.5,2.1,2.5,�k,2.9,�L
2014/06/09,21:00,2.2,3.9,4.3,3.9,4.0,1.5,2.1,2.5,�k,3.2,�L
2014/06/09,21:10,2.2,3.8,4.3,3.9,4.0,1.5,2.1,2.5,�k,3.6,�L
2014/06/09,21:20,2.2,3.8,4.3,3.8,3.9,1.5,2.1,2.5,�k,3.5,�L
2014/06/09,21:30,2.2,3.8,4.3,3.8,3.9,1.5,2.1,2.5,�k,3.5,�L
2014/06/09,21:40,2.2,3.8,4.3,3.8,3.9,1.5,2.1,2.5,�k,3.9,�L
2014/06/09,21:50,2.2,3.8,4.3,3.8,3.9,1.5,2.1,2.5,�k,4.6,��
2014/06/09,22:00,2.2,3.8,4.3,3.8,3.9,1.5,2.1,2.5,�k,4.4,�L
2014/06/09,22:10,2.2,3.8,4.3,3.8,4.0,1.5,2.1,2.5,�k,3.9,��
2014/06/09,22:20,2.2,3.8,4.3,3.9,4.0,1.5,2.1,2.5,�k,4.0,��
2014/06/09,22:30,2.2,3.8,4.3,3.9,4.0,1.5,2.1,2.5,�k�k��,3.9,��
2014/06/09,22:40,2.2,3.8,4.3,3.9,4.0,1.5,2.1,2.5,�k,3.3,��
2014/06/09,22:50,2.2,3.8,4.3,3.9,4.0,1.5,2.1,2.5,�k,3.3,��
2014/06/09,23:00,2.2,3.8,4.3,3.9,4.0,1.5,2.1,2.5,�k,3.4,��
2014/06/09,23:10,2.2,3.8,4.3,3.9,4.0,1.5,2.1,2.5,�k,3.4,��
2014/06/09,23:20,2.2,3.9,4.3,3.9,4.0,1.5,2.1,2.5,�k,3.3,�L
2014/06/09,23:30,2.2,3.9,4.3,3.9,4.0,1.5,2.1,2.5,�k,3.4,�L
2014/06/09,23:40,2.2,3.9,4.3,3.9,4.0,1.5,2.1,2.5,�k,3.5,��
2014/06/09,23:50,2.2,3.9,4.3,3.9,4.0,1.5,2.1,2.5,�k,3.4,��
